STARLINK-34167, 64228

Orbit data source: Space-Track

STARLINK-34167, 64228 is a payload satellite owned by SpaceX/Seattle (US) in LEO that was launched on Thu, 05 Jun 2025 UTC via an FALCON 9 launch vehicle from the Air Force Western Test Range (AFWTR). Payload-class satellites include a variety of spacecraft equipped with specific instruments for various scientific and technological missions. These include communications satellites like Starlink; space stations such as the ISS; scientific satellites like the Hubble; Earth observation satellites from companies like Planet Labs, Umbra, and HawkEye 360; GPS; miniature CubeSats for education and research; and military/defense satellites.

Loading next visibility...
Identifier
64228, 2025-117AB
Orbit
LEO
Last TLE update
8 hours ago
Origin
Manufacturer
SpaceX/Seattle
Mission
Operational spacecraft
Bus & Motor
STARLINK V2MO, Unknown motor
Mass
575 kg wet, ~530 kg dry
Launch date (UTC)
2025-06-05 (2 weeks ago)
Launch vehicle
FALCON 9
Launch site
Air Force Western Test Range (AFWTR)
Object type
Payload
Rocket body
Debris
Shape & HBR
Unknown
Radar Cross Section
Large (>1 m²)

Expand to show TLE details & history

TLE from 8 hours ago
0 STARLINK-34167
1 64228U 25117AB  25169.91668981 -.01484136  00000-0 -14153-1 0  9993
2 64228  53.1598 190.4198 0000883  83.3773 214.0117 15.68859281  4112
Epoch: 2025-06-18T22:00Z
TLE epoch observation values (Epoch: 2025-06-18T22:00:01.999Z)
Latitude
-45.47948°
Longitude
-96.23093°
Altitude
378.068 km
Speed
7.682 km/s
True Right ascension
09h 24m 40s
True Declination
-45° 17' 52"
Sunlit
Object was in daylight at epoch
Visualization orbit readout
Latitude
53.29821°
Longitude
39.36354°
Altitude
371.237 km
Speed
7.694 km/s
Apparent Right ascension
01h 42m 38s
Apparent Declination
36° 55' 51"
Sunlit
Object is in daylight
Visualization observer readout
Local Sidereal Time
17:07:55
Azimuth
38.61° NE
Elevation
0.136°
Doppler factor
1
Orbital elements
Apogee altitude
363.018 km
Perigee altitude
361.828 km
Semi-major axis
6,740.56 km
Eccentricity
0.00009
Inclination
53.1598°
RAAN
190.4198°
Arg. of periapsis
83.3773°
True anomaly
Unknown
Mean anomaly
214.0117°
Eccentric anomaly
Unknown
Mean motion
3.92192 °/min
Orbital period
91.79 mins
BSTAR
-0.014153
Loading maneuver chart data...
Loading SW <> Apogee altitude chart data...
Loading historical data...
Loading historical data...
Loading historical data...
Loading historical data...
Loading historical data...
Loading historical data...
Loading historical data...

STARLINK-34167 Visibility forecast

Observer location: undefined°, undefined°

Span
Click to sort rows by Start time (UTC) header in descending order
Start Az.
Max El. time (UTC)
Max El. Az.
Max El.
End time (UTC)
End Az.
4 mins2025-06-19 11:01:28.063Z314.187° NW2025-06-19 11:02:28.063Z16.331° NNE44.849°2025-06-19 11:05:28.063Z129.066° SE
4 mins2025-06-20 03:32:28.063Z193.941° SSW2025-06-20 03:33:28.063Z157.395° SSE34.204°2025-06-20 03:36:28.063Z62.667° ENE
|